FENGYUN 1C DEB

Satellite information

Favourite Embed

Satellite Type and Status

DEBRISIN ORBIT

Key statistics

Satellite FENGYUN 1C DEB at a glance.

Uptime

9668

Days in orbit

Revolutions

≈ 13.7

Per day

Orbit

SSO

Sun Synchronous Orbit

Inclination

99.3

Latest

Satellite identification and parameters

Extended collection of information and parameters for FENGYUN 1C DEB.

Object identification

Identified? True

Debris? True

Object name: FENGYUN 1C DEB

International designator: 1999-025DQX

Object number (NORAD): 35239

Object ID (CCSDS): 35239

Country: PEOPLES REPUBLIC OF CHINA (PRC)

Current information (Y/N): Y

RCS size: SMALL

Orbital parameters

Period: 105.176 minutes

Inclination: 99.2668 deg

SMA: 7380.823 km

Apoapsis: 1173.473 km

Periapsis: 831.903 km

RAAN: 101.3739 deg

Eccentricy: 0.023139

Argument of periapsis: 135.2229 deg

Mean anomaly: 226.7853 deg

Mean motion: 13.69132738 rev/day

Mean motion (dot): 0.00000813 rev/day2

B* drag term: 0.00081708 1/REarth

Two-line elements (TLE)

Creation date: Oct. 26, 2025, 6:46 a.m.

Reference frame: TEME

Reference center: EARTH

Epoch: Oct. 25, 2025, 9:37 p.m. UTC

TLE line 0: 0 FENGYUN 1C DEB

TLE line 1: 1 35239U 99025DQX 25298.90085249 .00000813 00000-0 81708-3 0 9999

TLE line 2: 2 35239 99.2668 101.3739 0231390 135.2229 226.7853 13.69132738574765

Live tracking on map

Real-time ground track for satellite FENGYUN 1C DEB.

In-orbit conjunctions

A list of the most updated potential collisions computed for object FENGYUN 1C DEB.

Target Orbit TCA Probability of collision Miss distance Type
SL-8 R/B LEO 2024-08-26 20:10:33 0.0001135796 168.0 (m) ROCKET BODY

Associated space launch

Chinese polar orbiting meteorological satellite

FENGYUN 1C DEB was lifted into orbit during the mission ‘Long March 4B | Feng Yun 1C’, on board a Long March 4B space rocket.

The launch took place on May 10, 1999, 1:33 a.m. from Launch Complex 7.

For more information about the launch, click the button.

Launch to space Long March 4B | Feng Yun 1C
Long March 4B | Feng Yun 1C

Agency: N/A

Status: Launch Successful

Launch date: May 10, 1999, 1:33 a.m. UTC

Rocket: Long March 4B

Launch pad: Launch Complex 7

Location: Taiyuan Satellite Launch Center, People's Republic of China

...

Latest news about this satellite

There are no fresh news available about this satellite. Check back as we update our databases every day.


Newsletter sign-up

Weekly statistics, charts and insights to help you stay on top of the space industry.